Lid_Strength_Index
8 8 9 8 8 8 8 8 9 11 10 8 7 5 4 4 4 5 5 4 4 4 4 4 4 5 5 5 5 4 4 4 4 4 3 3 3 3
8 9 9 8 8 7 7 6 6 8 9 7 7 6 5 5 4 5 5 4 4 4 4 4 4 4 4 5 5 5 5 4 4 3 4 4 3 3
8 8 9 8 8 7 6 6 6 6 8 7 6 6 6 6 5 4 4 5 5 3 3 4 4 4 4 4 5 5 5 5 5 4 4 4 4 4
9 8 8 7 7 6 6 6 6 6 7 8 6 7 7 6 6 6 5 5 5 4 3 3 3 3 3 3 4 5 5 5 5 5 5 4 4 4
8 8 7 7 7 6 6 6 6 5 6 6 7 6 6 5 6 6 6 6 5 3 3 3 4 4 4 3 3 3 4 4 6 6 6 5 5 5
7 7 6 6 6 6 6 6 6 6 6 6 6 6 6 5 5 7 7 6 6 5 4 4 4 4 4 4 4 4 4 4 4 5 6 6 6 6
7 6 6 5 4 4 5 5 5 6 6 6 7 6 6 6 6 6 7 6 6 6 6 6 6 6 6 5 4 4 4 4 4 4 4 5 6 6
7 7 6 5 5 4 4 4 5 6 6 5 5 6 5 5 5 5 5 6 8 5 6 7 6 7 6 6 5 4 4 4 4 4 4 4 4 4
7 7 6 6 5 6 5 4 4 3 3 5 6 5 5 4 4 5 5 6 6 5 5 7 5 7 5 6 4 4 4 4 4 4 4 4 4 4
6 6 6 6 6 5 6 5 5 4 4 4 4 4 3 2 2 2 3 3 3 4 3 7 5 6 6 6 4 4 4 4 4 4 4 4 4 4
7 6 6 6 5 4 5 5 5 5 3 2 1 0 -0 -1 -1 1 3 3 5 4 4 6 6 6 6 6 5 4 4 4 4 4 4 4 4 4
7 6 5 5 4 3 5 6 6 5 4 4 2 1 -0 -0 -1 0 2 4 5 6 4 6 7 7 9 6 6 5 6 4 4 5 4 4 4 6
8 7 6 4 4 4 4 5 5 4 4 3 3 3 2 2 2 2 1 4 5 6 4 5 6 6 7 7 6 6 5 6 6 5 4 4 4 4
8 7 6 4 4 4 5 4 4 4 5 5 5 5 5 4 3 3 3 3 4 5 4 4 6 6 7 8 8 7 6 5 5 6 6 4 4 3
7 6 4 5 5 5 5 4 4 6 6 6 6 6 5 5 4 4 4 5 5 5 5 5 6 6 6 7 7 7 7 6 5 6 6 5 5 5
6 5 6 6 6 5 6 6 6 7 7 7 6 6 5 5 5 5 7 6 6 7 5 5 5 5 6 6 6 7 6 7 6 5 6 7 5 5
6 7 8 8 8 7 7 7 7 7 8 7 7 7 7 7 7 7 7 7 8 8 7 6 5 5 5 6 7 6 7 7 6 5 5 6 5 5
7 9 9 9 8 8 8 9 8 8 8 8 8 8 8 8 8 7 7 8 8 8 8 7 7 7 6 6 5 7 6 6 6 6 6 7 7 5
9 10 9 8 8 8 9 9 9 8 8 8 8 8 8 9 8 9 8 8 9 8 8 7 7 7 9 10 7 5 8 7 8 7 7 7 8 7
10 9 9 8 9 9 9 9 8 8 8 8 8 8 9 9 9 9 9 9 9 9 8 7 7 8 9 9 9 8 7 9 9 9 9 8 7 6
9 9 8 8 8 8 8 8 8 8 8 9 9 9 9 9 9 9 9 8 7 8 8 8 8 6 8 9 10 10 9 7 8 11 11 10 11 10
9 8 8 8 8 8 8 8 9 9 9 9 9 9 9 9 9 9 9 9 8 8 8 8 8 8 9 10 11 11 10 9 8 8 8 8 12 13
8 8 8 8 8 8 8 9 9 9 9 9 9 9 8 9 8 8 7 7 7 8 8 9 8 8 9 10 11 12 12 11 10 11 10 7 7 7